Regional Weather Roundup
Issued by NWS

Home | Current Version | Previous Version | Text Only | Print | Product List | Glossary Off
Versions: 1 2 3 4 5 6 7 8 9 10 11 12 13 14 15 16 17 18 19 20 21 22 23 24 25 26 27 28 29 30 31 32 33 34 35 36 37 38 39 40 41 42 43 44 45 46 47 48 49 50

000
ASUS45 KABQ 210701
RWRNM
WEATHER ROUNDUP FOR NEW MEXICO
NATIONAL WEATHER SERVICE ALBUQUERQUE NM
100 AM MDT MON APR 21 2014

NOTE: "FAIR" MEANS FEW OR NO CLOUDS BELOW 12,000 FEET AGL WITH NO
       SIGNIFICANT WEATHER OR OBSTRUCTIONS TO VISION.

      THIS PRODUCT IS RELEASED AS TWO VERSIONS.  ONE VERSION NEAR
      THE TOP OF THE HOUR CONTAINING PRELIMINARY DATA FROM ALBUQUERQUE
      AND OTHER STATIONS.  A FINAL VERSION WITH ADDITIONAL DATA IS
      ISSUED ABOUT 10 MINUTES AFTER THE HOUR.

NMZ501-503-504-510>518-210800-
NORTHWEST PLATEAU/NORTHCENTRAL MOUNTAINS

CITY           SKY/WX    TMP DP  RH WIND       PRES   REMARKS
FARMINGTON     CLEAR     52  27  38 NW5       30.16R
SANTA FE       PTCLDY    49  34  56 N7        30.18R
TAOS           MOCLDY    45  37  76 N5        30.27R

$$
NMZ402-403-502-505>509-210800-
WESTCENTRAL MOUNTAINS/SOUTHWEST MOUNTAINS

CITY           SKY/WX    TMP DP  RH WIND       PRES   REMARKS
GALLUP         CLEAR     40  20  44 E5        30.24R
SILVER CITY    CLEAR     50  39  66 N8        30.21S

$$
NMZ407-409-411-412-210800-
SOUTHERN DESERTS

CITY           SKY/WX    TMP DP  RH WIND       PRES   REMARKS
DEMING         CLEAR     56  44  64 W7        30.13S
HOLLOMAN AFB   CLEAR     60  40  47 CALM      30.10S
T OR C         CLEAR     61  37  41 W9        30.14R

$$
NMZ519>523-210800-
CENTRAL VALLEYS/CENTRAL HIGHLANDS

CITY           SKY/WX    TMP DP  RH WIND       PRES   REMARKS
ALBUQUERQUE    PTCLDY    59  37  44 SE7       30.15R
DOUBLE EAGLE   MOCLDY    57  26  30 CALM      30.17S
CLINES CORNERS CLOUDY    50  41  71 E10       30.20S
BELEN          FAIR      48  37  63 E3        30.15R
SOCORRO        NOT AVBL

$$
NMZ524>526-539-540-210800-
SOUTHCENTRAL MOUNTAINS

CITY           SKY/WX    TMP DP  RH WIND       PRES   REMARKS
RUIDOSO        NOT AVBL

$$
NMZ527>531-210800-
NORTHEAST HIGHLANDS/NORTHEAST PLAINS

CITY           SKY/WX    TMP DP  RH WIND       PRES   REMARKS
LAS VEGAS      CLOUDY    49  42  77 NW7       30.22R
RATON          PTCLDY    45  39  79 VRB6      30.18S
CLAYTON        CLEAR     56  41  57 NW15      30.09R

$$
NMZ532>537-210800-
EASTCENTRAL PLAINS

CITY           SKY/WX    TMP DP  RH WIND       PRES   REMARKS
TUCUMCARI      PTCLDY    53  41  63 W10       30.06R
CANNON AFB     PTCLDY    55  44  67 NW8       30.07F
CLOVIS AIRPORT   N/A     54  43  66 NW12      30.09S

$$
NMZ028-029-538-210800-
SOUTHEAST PLAINS

CITY           SKY/WX    TMP DP  RH WIND       PRES   REMARKS
ROSWELL        CLEAR     61  42  49 NW6       30.04S
CARLSBAD       CLEAR     60  45  57 W7        30.02S
HOBBS          CLEAR     61  41  48 W9        30.04F


$$



USA.gov is the U.S. government's official web portal to all federal, state and local government web resources and services.